Flag for Turkey Weather past 2 weeks in Izmir, Turkey

Now
39 °F

Clear.


Feels Like: 39 °F
Forecast: 41 / 56 °F
Wind: 1 mph from North

Location: Izmir / Adnan Menderes

Current Time: Dec 20, 2014 at 2:34:04 AM

Latest Report: Dec 20, 2014 at 1:50 AM


Visibility: 5 mi

Pressure: 30.15 "Hg

Humidity: 93%

Dew point: 37 °F

Location of IzmirLocation

Historic Weather in Izmir — Graph

°F

Izmir temperature yesterday

Maximum temperature yesterday: 61 °F (at 1:20 PM)
Minimum temperature yesterday: 41 °F (at 11:20 PM)
Average temperature yesterday: 51 °F

Past Weeks' High & Low Weather Summary

 TemperatureHumidityPressure
High66 °F (Dec 5, 2:20 PM)100% (Dec 5, 1:00 AM)30.30 "Hg (Dec 5, 1:00 AM)
Low36 °F (Dec 15, 6:20 AM)52% (Dec 9, 12:50 PM)29.59 "Hg (Dec 9, 11:50 AM)
Average53 °F88%30.03 "Hg
* Reported Dec 5 1:00 AM — Dec 20 1:20 AM, Izmir, Weather by CustomWeather, © 2014

Note: Actual official high and low records may vary slightly from our data, if they occured in-between our weather recording intervals... More about our weather records

Advertising

Izmir weather history for previous 24 hours

 ConditionsComfort  
Time TempWeatherWind HumidityBarometerVisibility
1:20 AM
Dec 20
41 °FClear.No wind93%30.15 "Hg5 mi
12:50 AM41 °FClear.1 mph93%30.15 "Hg5 mi
12:20 AM43 °FClear.2 mph93%30.15 "Hg5 mi
11:50 PM
Dec 19
43 °FClear.No wind93%30.15 "Hg5 mi
11:20 PM41 °FClear.3 mph93%30.15 "Hg5 mi
10:50 PM43 °FClear.1 mph93%30.15 "Hg5 mi
10:20 PM45 °FClear.2 mph93%30.15 "Hg5 mi
9:50 PM46 °FClear.5 mph87%30.15 "Hg5 mi
9:20 PM46 °FClear.2 mph93%30.15 "Hg5 mi
8:50 PM48 °FClear.No wind87%30.15 "Hg6 mi
8:20 PM50 °FClear.3 mph82%30.15 "Hg10 mi
7:50 PM52 °FClear.8 mph82%30.12 "Hg10 mi
7:20 PM52 °FClear.10 mph82%30.12 "Hg10 mi
6:50 PM52 °FClear.12 mph82%30.12 "Hg10 mi
6:20 PM54 °FClear.12 mph77%30.12 "Hg10 mi
5:50 PM54 °FClear.13 mph77%30.12 "Hg10 mi
5:20 PM54 °FClear.13 mph77%30.12 "Hg10 mi
4:50 PM55 °FPassing clouds.12 mph72%30.12 "HgN/A
4:20 PM57 °FPassing clouds.10 mph67%30.09 "HgN/A
3:50 PM59 °FPassing clouds.14 mph63%30.09 "HgN/A
3:20 PM59 °FPassing clouds.16 mph63%30.09 "HgN/A
2:50 PM61 °FPassing clouds.14 mph59%30.09 "HgN/A
2:20 PM61 °FPassing clouds.13 mph59%30.09 "HgN/A
1:50 PM61 °FPassing clouds.13 mph59%30.09 "HgN/A
1:20 PM61 °FPassing clouds.14 mph59%30.12 "HgN/A
12:50 PM59 °FPassing clouds.14 mph63%30.12 "HgN/A
12:20 PM59 °FPassing clouds.13 mph68%30.12 "HgN/A
11:50 AM59 °FPassing clouds.13 mph68%30.12 "HgN/A
11:20 AM57 °FPassing clouds.14 mph72%30.12 "HgN/A
10:50 AM57 °FPassing clouds.13 mph67%30.12 "HgN/A
10:20 AM57 °FClear.12 mph67%30.15 "Hg4 mi
9:50 AM55 °FFog.10 mph77%30.15 "Hg2 mi
9:20 AM52 °FFog.6 mph88%30.15 "Hg2 mi
8:50 AM48 °FFog.1 mph94%30.15 "Hg2 mi
8:20 AM45 °FFog.2 mph100%30.12 "Hg2 mi
7:50 AM43 °FFog.5 mph100%30.12 "Hg2 mi
7:20 AM45 °FFog.3 mph100%30.12 "Hg2 mi
6:50 AM43 °FFog.2 mph100%30.09 "Hg2 mi
6:20 AM45 °FFog.No wind93%30.09 "Hg3 mi
5:20 AM45 °FFog.2 mph100%30.09 "Hg3 mi
4:50 AM46 °FClear.2 mph100%30.09 "Hg4 mi
4:20 AM46 °FPassing clouds.3 mph100%30.09 "Hg4 mi
3:50 AM48 °FPassing clouds.5 mph94%30.09 "Hg4 mi
3:20 AM48 °FPassing clouds.7 mph94%30.09 "Hg5 mi
2:50 AM48 °FPassing clouds.2 mph94%30.09 "Hg5 mi
2:20 AM48 °FPartly cloudy.3 mph94%30.09 "Hg4 mi
Weather by CustomWeather, © 2014

See weather overviewHow to use our weather pages